GW2622 Weather Reports


time (UTC)temp
C
wind
direction
speed
KPH
gust
KPH
rain 1hr
cm
rain 24hr
cm
rain mn
cm
humidity
%
barometer
mb
20260906044455 25 123 4.8 4.8 0.00 0.00 0.00 98 1016.6
20260906043951 25 7 1.6 4.8 0.00 0.00 0.00 98 1016.7
20260906043447 25 351 0.0 1.6 0.00 0.00 0.00 98 1016.5
20260906042943 25 351 0.0 0.0 0.00 0.00 0.00 98 1016.6
20260906042442 25 50 1.6 1.6 0.00 0.00 0.00 98 1016.5
20260906041936 25 14 1.6 3.2 0.00 0.00 0.00 98 1016.4
20260906041432 25 349 0.0 1.6 0.00 0.00 0.00 98 1016.3
20260906040926 26 349 0.0 0.0 0.00 0.00 0.00 97 1016.3
20260906040422 26 349 0.0 1.6 0.00 0.00 0.00 97 1016.3
20260906035917 26 358 1.6 1.6 0.00 0.00 0.00 97 1016.2
20260906035412 26 354 1.6 1.6 0.00 0.00 0.00 97 1016.2
20260906034908 26 332 0.0 0.0 0.00 0.00 0.00 97 1016.2
20260906034402 26 343 0.0 1.6 0.00 0.00 0.00 97 1016.4
20260906033858 26 352 0.0 1.6 0.00 0.00 0.00 97 1016.1
20260906033357 26 351 0.0 0.0 0.00 0.00 0.00 97 1016.2
20260906032853 26 351 0.0 0.0 0.00 0.00 0.00 96 1016.3
20260906032349 26 351 0.0 0.0 0.00 0.00 0.00 96 1016.2
20260906031844 26 351 0.0 0.0 0.00 0.00 0.00 95 1016.1
20260906031339 26 351 0.0 0.0 0.00 0.00 0.00 95 1016.3
20260906030839 26 352 0.0 1.6 0.00 0.00 0.00 95 1015.9
20260906030335 26 353 0.0 0.0 0.00 0.00 0.00 95 1016.0
20260906025829 26 352 0.0 0.0 0.00 0.00 0.00 95 1016.1
20260906025323 26 352 0.0 0.0 0.00 0.00 0.00 94 1015.9
20260906024822 27 353 0.0 1.6 0.00 0.00 0.00 94 1015.9
20260906024321 27 351 0.0 0.0 0.00 0.00 0.00 94 1015.8
20260906023817 27 344 0.0 0.0 0.00 0.00 0.00 93 1015.8
20260906023312 27 342 0.0 0.0 0.00 0.00 0.00 93 1015.7
20260906022808 27 342 0.0 8.0 0.00 0.00 0.00 92 1015.4
20260906022306 27 349 0.0 1.6 0.00 0.00 0.00 92 1015.4
20260906021759 27 351 0.0 3.2 0.00 0.00 0.00 92 1015.5
20260906021258 27 7 0.0 4.8 0.00 0.00 0.00 92 1015.5
20260906020752 27 79 3.2 3.2 0.00 0.00 0.00 92 1015.3
20260906020246 27 35 1.6 3.2 0.00 0.00 0.00 92 1015.3
20260906015741 27 351 0.0 3.2 0.00 0.00 0.00 92 1015.2
20260906015239 27 342 0.0 1.6 0.00 0.00 0.00 92 1015.1
20260906014734 27 345 0.0 1.6 0.00 0.00 0.00 92 1015.1
20260906014230 27 64 1.6 3.2 0.00 0.00 0.00 91 1014.9
20260906013721 27 301 0.0 3.2 0.00 0.00 0.00 91 1014.8
20260906013221 27 318 0.0 1.6 0.00 0.00 0.00 91 1014.9
20260906012715 27 337 0.0 1.6 0.00 0.00 0.00 91 1014.9
20260906012210 28 335 0.0 0.0 0.00 0.00 0.00 91 1014.8
20260906011705 28 335 0.0 3.2 0.00 0.00 0.00 90 1014.8
20260906011200 28 353 1.6 1.6 0.00 0.00 0.00 90 1014.8
20260906010655 28 26 1.6 3.2 0.00 0.00 0.00 90 1014.8
20260906010152 28 344 0.0 1.6 0.00 0.00 0.00 90 1014.8
20260906005651 28 339 0.0 1.6 0.00 0.00 0.00 89 1014.7
20260906005151 28 351 0.0 1.6 0.00 0.00 0.00 89 1014.7
20260906004649 28 349 0.0 0.0 0.00 0.00 0.00 88 1014.8
20260906004144 29 349 0.0 0.0 0.00 0.00 0.00 88 1014.6
20260906003640 29 348 0.0 1.6 0.00 0.00 0.00 86 1014.6
20260906003136 29 80 3.2 3.2 0.00 0.00 0.00 85 1014.5
20260906002630 30 357 0.0 4.8 0.00 0.00 0.00 85 1014.5
20260906002119 30 352 1.6 3.2 0.00 0.00 0.00 84 1014.7
20260906001615 30 356 1.6 4.8 0.00 0.00 0.00 83 1014.6
20260906001114 30 348 1.6 3.2 0.00 0.00 0.00 82 1014.4
20260906000611 30 43 3.2 4.8 0.00 0.00 0.00 81 1014.6
20260906000106 30 40 4.8 9.7 0.00 0.00 0.00 81 1014.6
20260905235605 30 85 4.8 9.7 0.00 0.00 0.00 80 1014.5
20260905235100 31 80 6.4 11.3 0.00 0.00 0.00 79 1014.5
20260905234555 31 111 8.0 9.7 0.00 0.00 0.00 78 1014.6
20260905234050 31 41 4.8 12.9 0.00 0.00 0.00 79 1014.5
20260905233544 31 23 3.2 9.7 0.00 0.00 0.00 79 1014.6
20260905233045 31 87 4.8 8.0 0.00 0.00 0.00 79 1014.5
20260905232540 31 29 0.0 4.8 0.00 0.00 0.00 79 1014.5
20260905232035 31 26 1.6 4.8 0.00 0.00 0.00 77 1014.4
20260905231531 31 58 4.8 9.7 0.00 0.00 0.00 76 1014.5
20260905231027 32 337 0.0 4.8 0.00 0.00 0.00 77 1014.4
20260905230526 32 34 4.8 8.0 0.00 0.00 0.00 77 1014.6
20260905230025 32 356 1.6 1.6 0.00 0.00 0.00 76 1014.6
20260905225519 32 332 3.2 9.7 0.00 0.00 0.00 76 1014.5
20260905225015 32 24 3.2 11.3 0.00 0.00 0.00 76 1014.5
20260905224509 32 344 1.6 4.8 0.00 0.00 0.00 78 1014.5
20260905224009 32 334 0.0 4.8 0.00 0.00 0.00 77 1014.5
20260905223507 32 4 3.2 9.7 0.00 0.00 0.00 77 1014.2
20260905223001 32 343 4.8 11.3 0.00 0.00 0.00 76 1014.4
20260905222456 32 43 3.2 9.7 0.00 0.00 0.00 76 1014.5
20260905221951 33 18 3.2 4.8 0.00 0.00 0.00 75 1014.3
20260905221448 32 28 1.6 8.0 0.00 0.00 0.00 75 1014.4
20260905220944 32 102 6.4 9.7 0.00 0.00 0.00 75 1014.5
20260905220440 32 40 4.8 8.0 0.00 0.00 0.00 75 1014.4
20260905215938 32 97 3.2 3.2 0.00 0.00 0.00 74 1014.4
20260905215434 33 236 1.6 9.7 0.00 0.00 0.00 73 1014.6
20260905214930 32 336 1.6 4.8 0.00 0.00 0.00 77 1014.4
20260905214425 32 297 1.6 4.8 0.00 0.00 0.00 75 1014.4
20260905213920 32 327 1.6 8.0 0.00 0.00 0.00 74 1014.2
20260905213416 32 47 4.8 8.0 0.00 0.00 0.00 74 1014.3
20260905212912 32 328 1.6 11.3 0.00 0.00 0.00 75 1014.5
20260905212406 32 322 1.6 9.7 0.00 0.00 0.00 77 1014.6
20260905211905 32 338 1.6 4.8 0.00 0.00 0.00 76 1014.5
20260905211401 32 139 3.2 8.0 0.00 0.00 0.00 76 1014.5
20260905210857 32 320 3.2 4.8 0.00 0.00 0.00 78 1014.1
20260905210356 32 48 1.6 3.2 0.00 0.00 0.00 75 1014.4
20260905205856 32 14 3.2 8.0 0.00 0.00 0.00 77 1014.4
20260905205350 32 61 3.2 4.8 0.00 0.00 0.00 75 1014.5
20260905204844 32 327 1.6 4.8 0.00 0.00 0.00 76 1014.4
20260905204340 32 267 1.6 8.0 0.00 0.00 0.00 73 1014.5
20260905203833 33 2 6.4 11.3 0.00 0.00 0.00 71 1014.5
20260905203330 34 48 6.4 12.9 0.00 0.00 0.00 69 1014.6
20260905202825 33 314 0.0 4.8 0.00 0.00 0.00 70 1014.6
20260905202319 34 23 3.2 8.0 0.00 0.00 0.00 69 1014.6
20260905201815 33 284 3.2 3.2 0.00 0.00 0.00 68 1014.6
20260905201311 33 329 0.0 9.7 0.00 0.00 0.00 71 1014.6
20260905200805 33 344 4.8 9.7 0.00 0.00 0.00 72 1014.7
20260905200301 33 351 3.2 9.7 0.00 0.00 0.00 71 1014.8
20260905195759 33 350 9.7 12.9 0.00 0.00 0.00 70 1014.9
20260905195254 33 317 3.2 8.0 0.00 0.00 0.00 69 1014.9
20260905194749 33 93 8.0 12.9 0.00 0.00 0.00 69 1015.0
20260905194248 33 37 6.4 11.3 0.00 0.00 0.00 69 1015.2
20260905193743 33 60 3.2 8.0 0.00 0.00 0.00 69 1015.4
20260905193237 33 15 11.3 12.9 0.00 0.00 0.00 71 1015.5
20260905192727 33 6 6.4 11.3 0.00 0.00 0.00 72 1015.3
20260905192224 32 62 1.6 8.0 0.00 0.00 0.00 72 1015.4
20260905191723 33 350 6.4 14.5 0.00 0.00 0.00 71 1015.7
20260905191221 32 308 6.4 14.5 0.00 0.00 0.00 73 1015.7
20260905190720 32 10 9.7 14.5 0.00 0.00 0.00 69 1015.6
20260905190219 32 11 11.3 12.9 0.00 0.00 0.00 69 1015.9
20260905185718 32 7 8.0 9.7 0.00 0.00 0.00 67 1016.0
20260905185213 32 338 9.7 11.3 0.00 0.00 0.00 69 1015.9
20260905184713 32 16 4.8 9.7 0.00 0.00 0.00 71 1016.0
20260905184212 32 12 3.2 11.3 0.00 0.00 0.00 71 1016.0
20260905183706 32 352 4.8 11.3 0.00 0.00 0.00 72 1016.1
20260905183202 33 19 6.4 9.7 0.00 0.00 0.00 71 1016.1
20260905182700 32 1 3.2 14.5 0.00 0.00 0.00 72 1016.0
20260905182154 32 325 3.2 9.7 0.00 0.00 0.00 70 1016.0
20260905181650 33 333 4.8 14.5 0.00 0.00 0.00 69 1016.2
20260905181143 33 4 6.4 9.7 0.00 0.00 0.00 68 1016.2
20260905180638 33 6 4.8 8.0 0.00 0.00 0.00 67 1016.1
20260905180133 32 357 6.4 12.9 0.00 0.00 0.00 67 1016.0
20260905175632 32 352 8.0 9.7 0.00 0.00 0.00 69 1016.4
20260905175128 33 18 6.4 9.7 0.00 0.00 0.00 67 1016.3
20260905174624 33 20 4.8 8.0 0.00 0.00 0.00 64 1016.2
20260905174118 34 334 4.8 8.0 0.00 0.00 0.00 65 1016.2
20260905173615 33 303 0.0 4.8 0.00 0.00 0.00 66 1016.3
20260905173110 33 312 0.0 4.8 0.00 0.00 0.00 67 1016.3
20260905172608 33 297 4.8 4.8 0.00 0.00 0.00 67 1016.2
20260905172103 33 293 3.2 4.8 0.00 0.00 0.00 66 1016.3
20260905171600 32 336 1.6 4.8 0.00 0.00 0.00 69 1016.3
20260905171056 32 286 3.2 3.2 0.00 0.00 0.00 69 1016.2
20260905170552 32 313 0.0 0.0 0.00 0.00 0.00 71 1016.3
20260905170047 32 327 1.6 4.8 0.00 0.00 0.00 71 1016.0
20260905165542 32 358 4.8 4.8 0.00 0.00 0.00 72 1016.1
20260905165032 31 339 3.2 9.7 0.00 0.00 0.00 71 1016.0
20260905164532 32 9 8.0 11.3 0.00 0.00 0.00 71 1016.3
20260905164027 32 308 4.8 4.8 0.00 0.00 0.00 71 1016.4
20260905163523 32 301 1.6 1.6 0.00 0.00 0.00 72 1016.3
20260905163018 31 357 3.2 4.8 0.00 0.00 0.00 74 1016.4
20260905162514 31 286 3.2 4.8 0.00 0.00 0.00 73 1016.2
20260905162008 31 310 3.2 8.0 0.00 0.00 0.00 76 1016.6
20260905161503 31 318 3.2 4.8 0.00 0.00 0.00 75 1016.3
20260905161000 31 290 3.2 4.8 0.00 0.00 0.00 75 1016.6
20260905160454 30 307 3.2 8.0 0.00 0.00 0.00 79 1016.5
20260905155953 30 322 4.8 8.0 0.00 0.00 0.00 78 1016.4
20260905155448 30 318 3.2 3.2 0.00 0.00 0.00 78 1016.4
20260905154947 30 303 1.6 3.2 0.00 0.00 0.00 81 1016.2
20260905154443 30 322 1.6 1.6 0.00 0.00 0.00 82 1016.2
20260905153938 30 312 0.0 1.6 0.00 0.00 0.00 81 1016.1
20260905153434 30 285 1.6 3.2 0.00 0.00 0.00 80 1016.1
20260905152933 30 296 0.0 0.0 0.00 0.00 0.00 78 1016.1
20260905152427 30 289 0.0 0.0 0.00 0.00 0.00 78 1016.1
20260905151922 29 293 0.0 1.6 0.00 0.00 0.00 82 1016.0
20260905151418 28 302 1.6 3.2 0.00 0.00 0.00 84 1016.0
20260905150918 28 288 1.6 3.2 0.00 0.00 0.00 86 1016.1
20260905150418 28 310 1.6 1.6 0.00 0.00 0.00 85 1016.0
20260905145915 28 308 1.6 1.6 0.00 0.00 0.00 85 1015.9
20260905145410 28 290 0.0 1.6 0.00 0.00 0.00 83 1016.0
20260905144909 28 295 0.0 1.6 0.00 0.00 0.00 84 1015.8
20260905144359 28 286 1.6 1.6 0.00 0.00 0.00 83 1015.5
20260905143857 27 310 0.0 1.6 0.00 0.00 0.00 87 1015.7
20260905143352 27 316 3.2 3.2 0.00 0.00 0.00 87 1015.7
20260905142852 27 297 0.0 0.0 0.00 0.00 0.00 88 1015.9
20260905142350 27 296 0.0 1.6 0.00 0.00 0.00 89 1015.8
20260905141847 27 273 0.0 0.0 0.00 0.00 0.00 89 1015.7
20260905141342 27 272 0.0 1.6 0.00 0.00 0.00 89 1015.7
20260905140837 26 269 1.6 3.2 0.00 0.00 0.00 90 1015.4
20260905140332 26 269 1.6 1.6 0.00 0.00 0.00 92 1015.5
20260905135830 26 272 0.0 3.2 0.00 0.00 0.00 93 1015.6
20260905135326 26 274 0.0 1.6 0.00 0.00 0.00 92 1015.4
20260905134821 26 277 0.0 1.6 0.00 0.00 0.00 91 1015.4
20260905134314 26 281 0.0 1.6 0.00 0.00 0.00 93 1015.6
20260905133809 26 274 1.6 1.6 0.00 0.00 0.00 93 1015.3
20260905133305 26 279 0.0 1.6 0.00 0.00 0.00 93 1015.2
20260905132803 26 258 1.6 1.6 0.00 0.00 0.00 94 1015.2
20260905132259 26 275 1.6 3.2 0.00 0.00 0.00 94 1015.3
20260905131754 25 271 1.6 1.6 0.00 0.00 0.00 93 1015.3
20260905131249 26 272 1.6 1.6 0.00 0.00 0.00 91 1015.0
20260905130744 26 274 0.0 1.6 0.00 0.00 0.00 92 1015.1
20260905130243 25 216 3.2 3.2 0.00 0.00 0.00 93 1015.1
20260905125738 25 251 3.2 3.2 0.00 0.00 0.00 94 1015.2
20260905125233 25 278 0.0 1.6 0.00 0.00 0.00 95 1015.1
20260905124730 23 279 0.0 0.0 0.00 0.00 0.00 97 1014.9
20260905124226 23 279 0.0 0.0 0.00 0.00 0.00 98 1015.2
20260905123725 23 228 1.6 3.2 0.00 0.00 0.00 99 1014.9
20260905123223 23 262 0.0 0.0 0.00 0.00 0.00 99 1015.1
20260905122722 22 262 0.0 0.0 0.00 0.00 0.00 99 1015.0
20260905122217 22 262 0.0 0.0 0.00 0.00 0.00 99 1014.8
20260905121712 22 262 0.0 0.0 0.00 0.00 0.00 99 1014.8
20260905121209 22 262 0.0 0.0 0.00 0.00 0.00 99 1014.8
20260905120707 22 262 0.0 0.0 0.00 0.00 0.00 99 1014.8
20260905120201 22 263 0.0 0.0 0.00 0.00 0.00 99 1014.6
20260905115701 22 262 0.0 0.0 0.00 0.00 0.00 99 1014.4
20260905115151 22 262 0.0 0.0 0.00 0.00 0.00 99 1014.4
20260905114650 22 262 0.0 0.0 0.00 0.00 0.00 99 1014.3
20260905114148 22 262 0.0 0.0 0.00 0.00 0.00 99 1014.2
20260905113643 22 262 0.0 0.0 0.00 0.00 0.00 99 1014.5
20260905113138 22 243 3.2 3.2 0.00 0.00 0.00 99 1014.2
20260905112633 22 261 1.6 1.6 0.00 0.00 0.00 99 1014.3
20260905112130 22 261 0.0 0.0 0.00 0.00 0.00 99 1014.4
20260905111629 22 261 0.0 0.0 0.00 0.00 0.00 99 1014.5
20260905111128 22 261 0.0 1.6 0.00 0.00 0.00 99 1014.5
20260905110628 22 261 0.0 0.0 0.00 0.00 0.00 99 1014.4
20260905110123 22 261 0.0 0.0 0.00 0.00 0.00 99 1014.3
20260905105618 22 261 0.0 0.0 0.00 0.00 0.00 99 1014.4
20260905105117 22 261 0.0 0.0 0.00 0.00 0.00 99 1014.2
20260905104612 22 261 0.0 0.0 0.00 0.00 0.00 99 1014.2
20260905104107 23 261 0.0 0.0 0.00 0.00 0.00 99 1014.3
20260905103603 23 261 0.0 0.0 0.00 0.00 0.00 99 1014.3
20260905103058 23 261 0.0 0.0 0.00 0.00 0.00 98 1014.2
20260905102548 23 261 0.0 0.0 0.00 0.00 0.00 98 1014.1
20260905102045 23 261 0.0 0.0 0.00 0.00 0.00 98 1014.1
20260905101543 23 261 0.0 0.0 0.00 0.00 0.00 98 1014.0
20260905101041 23 261 0.0 1.6 0.00 0.00 0.00 98 1014.0
20260905100538 23 261 0.0 0.0 0.00 0.00 0.00 98 1013.6
20260905100037 23 261 0.0 0.0 0.00 0.00 0.00 98 1013.7
20260905095531 23 261 0.0 0.0 0.00 0.00 0.00 97 1014.0
20260905095026 23 261 0.0 0.0 0.00 0.00 0.00 97 1014.0
20260905094516 23 261 0.0 0.0 0.00 0.00 0.00 97 1013.6
20260905094015 23 261 1.6 1.6 0.00 0.00 0.00 97 1013.9
20260905093510 23 261 1.6 1.6 0.00 0.00 0.00 96 1013.7
20260905093007 24 261 0.0 1.6 0.00 0.00 0.00 95 1013.9
20260905092506 24 261 0.0 0.0 0.00 0.00 0.00 95 1013.7
20260905092002 24 261 1.6 1.6 0.00 0.00 0.00 95 1013.9
20260905091501 24 261 1.6 3.2 0.00 0.00 0.00 95 1013.9
20260905090956 24 262 1.6 1.6 0.00 0.00 0.00 94 1013.9
20260905090451 24 262 1.6 3.2 0.00 0.00 0.00 95 1013.7
20260905085950 24 262 0.0 1.6 0.00 0.00 0.00 95 1014.0
20260905085450 24 262 0.0 1.6 0.00 0.00 0.00 96 1014.1
20260905084946 24 262 0.0 0.0 0.00 0.00 0.00 96 1014.2
20260905084445 24 262 0.0 1.6 0.00 0.00 0.00 96 1014.1
20260905083939 24 262 0.0 1.6 0.00 0.00 0.00 96 1014.3
20260905083436 24 262 1.6 1.6 0.00 0.00 0.00 96 1014.2
20260905082931 24 262 0.0 0.0 0.00 0.00 0.00 96 1014.1
20260905082427 24 262 0.0 0.0 0.00 0.00 0.00 96 1014.2
20260905081922 24 262 0.0 0.0 0.00 0.00 0.00 96 1014.2
20260905081417 24 262 1.6 1.6 0.00 0.00 0.00 95 1014.2
20260905080915 24 262 1.6 1.6 0.00 0.00 0.00 95 1014.3
20260905080410 24 262 1.6 1.6 0.00 0.00 0.00 95 1014.4
20260905075909 24 262 1.6 3.2 0.00 0.00 0.00 96 1014.3
20260905075409 24 262 1.6 1.6 0.00 0.00 0.00 96 1014.2
20260905074908 24 262 0.0 0.0 0.00 0.00 0.00 97 1014.5
20260905074358 24 262 0.0 0.0 0.00 0.00 0.00 97 1014.3
20260905073854 24 262 0.0 0.0 0.00 0.00 0.00 96 1014.3
20260905073349 24 262 0.0 0.0 0.00 0.00 0.00 96 1014.5
20260905072844 24 262 1.6 1.6 0.00 0.00 0.00 96 1014.4
20260905072338 24 262 0.0 0.0 0.00 0.00 0.00 97 1014.2
20260905071835 24 262 0.0 0.0 0.00 0.00 0.00 97 1014.2
20260905071332 24 262 0.0 0.0 0.00 0.00 0.00 97 1014.4
20260905070831 24 262 0.0 0.0 0.00 0.00 0.00 96 1014.3
20260905070328 24 262 0.0 0.0 0.00 0.00 0.00 96 1014.2
20260905065826 25 262 0.0 0.0 0.00 0.00 0.00 96 1014.2
20260905065325 25 262 0.0 0.0 0.00 0.00 0.00 96 1014.3
20260905064820 25 262 0.0 0.0 0.00 0.00 0.00 96 1014.4
20260905064317 25 262 0.0 0.0 0.00 0.00 0.00 96 1014.2
20260905063815 25 262 1.6 1.6 0.00 0.00 0.00 96 1014.2
20260905063311 24 262 0.0 0.0 0.00 0.00 0.00 97 1014.3
20260905062807 24 262 0.0 0.0 0.00 0.00 0.00 97 1014.4
20260905062307 24 262 0.0 0.0 0.00 0.00 0.00 97 1014.2
20260905061801 24 262 0.0 0.0 0.00 0.00 0.00 97 1014.4
20260905061255 24 262 0.0 0.0 0.00 0.00 0.00 97 1014.3
20260905060750 24 262 0.0 0.0 0.00 0.00 0.00 96 1014.4
20260905060248 24 262 0.0 0.0 0.00 0.00 0.00 96 1014.2
20260905055746 25 262 0.0 0.0 0.00 0.00 0.00 96 1014.2
20260905055241 25 262 0.0 0.0 0.00 0.00 0.00 96 1014.2
20260905054736 25 262 0.0 0.0 0.00 0.00 0.00 95 1014.2
20260905054233 25 262 0.0 0.0 0.00 0.00 0.00 95 1014.1
20260905053731 25 262 0.0 0.0 0.00 0.00 0.00 94 1014.1
20260905053227 25 262 0.0 0.0 0.00 0.00 0.00 94 1014.2
20260905052726 25 262 0.0 0.0 0.00 0.00 0.00 93 1014.1
20260905052222 25 262 1.6 1.6 0.00 0.00 0.00 93 1014.1
20260905051721 25 262 1.6 1.6 0.00 0.00 0.00 94 1014.0
20260905051218 25 262 0.0 0.0 0.00 0.00 0.00 94 1014.1
20260905050714 25 262 0.0 0.0 0.00 0.00 0.00 94 1014.2
20260905050211 25 262 0.0 0.0 0.00 0.00 0.00 94 1014.0
20260905045710 25 262 0.0 0.0 0.00 0.08 0.08 94 1014.1
20260905045206 25 262 0.0 0.0 0.00 0.08 0.08 94 1013.9